This demonstration page uses our WeatherBlox Daily Observations layout. Learn more.

Left ArrowRight Arrow

Hourly Observations for April 12, 2021

Temp ( °F °C ) Dew Point ( °F °C ) Humidity (%) Winds ( mph kmh ) Pressure ( in mb ) Visibility ( mi km ) Precip ( " mm )
12:51 am 00:51 Clear 64 17.8 17 -8.3 16 16 NE 7 11 29.65 1004 10 16.0934 0 0
1:51 am 01:51 Clear 71 21.7 25 -3.9 18 18 NNW 12 19 29.62 1003 10 16.0934 0 0
2:51 am 02:51 Clear 67 19.4 26 -3.3 21 21 SW 6 9 29.63 1003 10 16.0934 0 0
3:51 am 03:51 Clear 60 15.6 22 -5.6 23 23 E 5 7 29.63 1004 10 16.0934 0 0
4:51 am 04:51 Clear 59 15 19 -7.2 21 21 E 7 11 29.64 1004 10 16.0934 0 0
5:51 am 05:51 Clear 58 14.4 20 -6.7 23 23 E 6 9 29.67 1005 10 16.0934 0 0
6:51 am 06:51 Sunny 61 16.1 23 -5 23 23 Calm 29.69 1005 10 16.0934 0 0
7:51 am 07:51 Sunny 66 18.9 22 -5.6 19 19 ESE 7 11 29.69 1006 10 16.0934 0 0
8:51 am 08:51 Sunny 75 23.9 29 -1.7 18 18 ENE 9 15 29.69 1005 10 16.0934 0 0
9:51 am 09:51 Sunny 77 25 30 -1.1 18 18 undefined N/A 29.69 1005 10 16.0934 0 0
10:51 am 10:51 Sunny 79 26.1 34 1.1 20 20 Calm 29.67 1005 10 16.0934 0 0
11:51 am 11:51 Sunny 82 27.8 31 -0.6 16 16 ESE 7 11 29.65 1004 10 16.0934 0 0
12:51 pm 12:51 Sunny 86 30 27 -2.8 12 12 VRB 7 11 29.62 1003 10 16.0934 0 0
1:51 pm 13:51 Sunny 86 30 26 -3.3 11 11 undefined N/A 29.59 1002 10 16.0934 0 0
2:51 pm 14:51 Sunny 85 29.4 26 -3.3 12 12 VRB 3 6 29.57 1001 10 16.0934 0 0
3:51 pm 15:51 Sunny 88 31.1 25 -3.9 10 10 W 10 17 29.57 1001 10 16.0934 0 0
4:51 pm 16:51 Sunny 87 30.6 23 -5 9 9 VRB 6 9 29.57 1001 10 16.0934 0 0
5:51 pm 17:51 Sunny 86 30 19 -7.2 8 8 W 17 28 29.59 1002 10 16.0934 0 0
6:51 pm 18:51 Clear 81 27.2 20 -6.7 10 10 W 9 15 29.61 1003 10 16.0934 0 0
7:51 pm 19:51 Clear 76 24.4 22 -5.6 13 13 WNW 9 15 29.63 1004 10 16.0934 0 0
8:51 pm 20:51 Clear 71 21.7 23 -5 16 16 NW 9 15 29.65 1004 10 16.0934 0 0
9:51 pm 21:51 Clear 70 21.1 24 -4.4 18 18 WNW 13 20 29.66 1004 10 16.0934 0 0
10:51 pm 22:51 Clear 69 20.6 24 -4.4 18 18 NW 12 19 29.67 1005 10 16.0934 0 0
11:51 pm 23:51 Clear 70 21.1 24 -4.4 18 18 NW 10 17 29.67 1005 10 16.0934 0 0

Powered by AerisWeather